Tracking 27124 objects as of 31-Mar-2023
HD Live streaming from Space Station
objects crossing your sky now

SL-8 DEB

Track SL-8 DEB now!
10-day predictions


NORAD ID: 21408
Int'l Code: 1991-009BX
Perigee: 1,458.1 km
Apogee: 1,778.3 km
Inclination: 74.0 °
Period: 118.4 minutes
Semi major axis: 7989 km
RCS: 0.0598 m2 (small)
Launch date: February 12, 1991
Source: Commonwealth of Independent States (former USSR) (CIS)
Launch site: PLESETSK MISSILE AND SPACE COMPLEX (PKMTR)

Note: This is SATELLITE DEBRIS
Your satellite tracking list
Your tracking list is empty




NASA's NSSDC Master Catalog

Two Line Element Set (TLE):
1 21408U 91009BX  23089.74709455 -.00000024  00000-0 -81826-4 0  9994
2 21408  74.0285 333.2613 0200421 310.4475 108.6837 12.15766952422686
Source of the keplerian elements: AFSPC